Time,TemperatureF,DewpointF,PressureIn,WindDirection,WindDirectionDegrees,WindSpeedMPH,WindSpeedGustMPH,Humidity,HourlyPrecipIn,Conditions,Clouds,dailyrainin,SoftwareType,DateUTC
2013-03-20 00:00:00,43.6,27.1,30.19,SW,230,0.0,2.0,52,0.00,,---,0.00,VWS V14.01,2013-03-20 04:00:00,
2013-03-20 00:05:00,43.5,29.3,30.19,SW,230,0.0,2.0,57,0.00,,---,0.00,VWS V14.01,2013-03-20 04:05:00,
2013-03-20 00:10:00,43.5,28.9,30.19,SW,230,0.0,1.0,56,0.00,,---,0.00,VWS V14.01,2013-03-20 04:10:00,
2013-03-20 00:15:00,43.6,28.5,30.19,SW,230,0.0,1.0,55,0.00,,---,0.00,VWS V14.01,2013-03-20 04:15:00,
2013-03-20 00:20:00,43.6,29.0,30.19,SW,230,0.0,1.0,56,0.00,,---,0.00,VWS V14.01,2013-03-20 04:20:00,
2013-03-20 00:25:00,43.6,29.8,30.19,SW,230,0.0,1.0,58,0.00,,---,0.00,VWS V14.01,2013-03-20 04:25:00,
2013-03-20 00:30:00,43.5,28.4,30.18,SW,230,0.0,1.0,55,0.00,,---,0.00,VWS V14.01,2013-03-20 04:30:00,
2013-03-20 00:35:00,43.5,29.3,30.18,SW,230,0.0,1.0,57,0.00,,---,0.00,VWS V14.01,2013-03-20 04:35:00,
2013-03-20 00:40:00,43.4,27.0,30.18,SW,230,0.0,0.0,52,0.00,,---,0.00,VWS V14.01,2013-03-20 04:40:00,
2013-03-20 00:45:00,43.3,27.8,30.19,SW,230,0.0,0.0,54,0.00,,---,0.00,VWS V14.01,2013-03-20 04:45:00,
2013-03-20 00:50:00,43.2,29.0,30.19,SW,230,0.0,0.0,57,0.00,,---,0.00,VWS V14.01,2013-03-20 04:50:00,
2013-03-20 00:55:00,43.1,27.1,30.19,SW,230,0.0,0.0,53,0.00,,---,0.00,VWS V14.01,2013-03-20 04:55:00,
2013-03-20 01:00:00,43.1,28.5,30.18,SW,230,0.0,1.0,56,0.00,,---,0.00,VWS V14.01,2013-03-20 05:00:00,
2013-03-20 01:05:00,43.0,29.7,30.18,SW,230,0.0,1.0,59,0.00,,---,0.00,VWS V14.01,2013-03-20 05:05:00,
2013-03-20 01:09:00,42.9,30.0,30.18,SW,230,0.0,1.0,60,0.00,,---,0.00,VWS V14.01,2013-03-20 05:09:00,
2013-03-20 01:14:00,42.8,27.8,30.18,SW,230,0.0,1.0,55,0.00,,---,0.00,VWS V14.01,2013-03-20 05:14:00,
2013-03-20 01:19:00,42.7,29.4,30.18,SW,230,0.0,1.0,59,0.00,,---,0.00,VWS V14.01,2013-03-20 05:19:00,
2013-03-20 01:24:00,42.7,29.0,30.18,SW,230,0.0,1.0,58,0.00,,---,0.00,VWS V14.01,2013-03-20 05:24:00,
2013-03-20 01:29:00,42.7,27.7,30.18,SW,230,0.0,1.0,55,0.00,,---,0.00,VWS V14.01,2013-03-20 05:29:00,
2013-03-20 01:34:00,42.7,26.8,30.18,SW,230,1.0,1.0,53,0.00,,---,0.00,VWS V14.01,2013-03-20 05:34:00,
2013-03-20 01:39:00,42.8,29.5,30.18,SW,230,0.0,1.0,59,0.00,,---,0.00,VWS V14.01,2013-03-20 05:39:00,
2013-03-20 01:44:00,42.9,28.3,30.18,SW,230,0.0,1.0,56,0.00,,---,0.00,VWS V14.01,2013-03-20 05:44:00,
2013-03-20 01:49:00,42.9,29.2,30.18,SW,230,0.0,1.0,58,0.00,,---,0.00,VWS V14.01,2013-03-20 05:49:00,
2013-03-20 01:54:00,42.8,28.6,30.18,SW,230,0.0,1.0,57,0.00,,---,0.00,VWS V14.01,2013-03-20 05:54:00,
2013-03-20 01:59:00,42.6,28.5,30.18,SW,230,0.0,1.0,57,0.00,,---,0.00,VWS V14.01,2013-03-20 05:59:00,
2013-03-20 02:04:00,42.4,27.8,30.19,SW,230,0.0,1.0,56,0.00,,---,0.00,VWS V14.01,2013-03-20 06:04:00,
2013-03-20 02:09:00,42.1,26.7,30.19,South,173,0.0,2.0,54,0.00,,---,0.00,VWS V14.01,2013-03-20 06:09:00,
2013-03-20 02:14:00,41.9,27.4,30.19,South,173,0.0,2.0,56,0.00,,---,0.00,VWS V14.01,2013-03-20 06:14:00,
2013-03-20 02:19:00,41.6,30.3,30.19,South,173,0.0,2.0,64,0.00,,---,0.00,VWS V14.01,2013-03-20 06:19:00,
2013-03-20 02:24:00,41.3,27.2,30.19,South,173,0.0,2.0,57,0.00,,---,0.00,VWS V14.01,2013-03-20 06:24:00,
2013-03-20 02:29:00,41.1,27.0,30.19,South,173,1.0,2.0,57,0.00,,---,0.00,VWS V14.01,2013-03-20 06:29:00,
2013-03-20 02:34:00,40.9,26.9,30.19,South,173,0.0,2.0,57,0.00,,---,0.00,VWS V14.01,2013-03-20 06:34:00,
2013-03-20 02:39:00,40.6,28.6,30.19,South,173,0.0,0.0,62,0.00,,---,0.00,VWS V14.01,2013-03-20 06:39:00,
2013-03-20 02:44:00,40.5,28.5,30.19,South,173,0.0,1.0,62,0.00,,---,0.00,VWS V14.01,2013-03-20 06:44:00,
2013-03-20 02:49:00,40.4,28.0,30.19,South,173,0.0,1.0,61,0.00,,---,0.00,VWS V14.01,2013-03-20 06:49:00,
2013-03-20 02:54:00,40.5,24.7,30.19,South,173,1.0,1.0,53,0.00,,---,0.00,VWS V14.01,2013-03-20 06:54:00,
2013-03-20 02:59:00,40.8,26.8,30.19,South,173,1.0,1.0,57,0.00,,---,0.00,VWS V14.01,2013-03-20 06:59:00,
2013-03-20 03:04:00,40.9,27.7,30.19,South,173,0.0,1.0,59,0.00,,---,0.00,VWS V14.01,2013-03-20 07:04:00,
2013-03-20 03:09:00,41.0,26.5,30.19,South,173,1.0,1.0,56,0.00,,---,0.00,VWS V14.01,2013-03-20 07:09:00,
2013-03-20 03:14:00,41.0,29.0,30.18,South,173,0.0,1.0,62,0.00,,---,0.00,VWS V14.01,2013-03-20 07:14:00,
2013-03-20 03:19:00,40.8,29.6,30.18,South,173,0.0,1.0,64,0.00,,---,0.00,VWS V14.01,2013-03-20 07:19:00,
2013-03-20 03:24:00,40.6,29.4,30.18,South,173,0.0,1.0,64,0.00,,---,0.00,VWS V14.01,2013-03-20 07:24:00,
2013-03-20 03:29:00,40.4,28.4,30.18,South,173,0.0,1.0,62,0.00,,---,0.00,VWS V14.01,2013-03-20 07:29:00,
2013-03-20 03:34:00,40.0,27.6,30.18,South,173,1.0,1.0,61,0.00,,---,0.00,VWS V14.01,2013-03-20 07:34:00,
2013-03-20 03:39:00,39.7,28.5,30.18,South,173,1.0,1.0,64,0.00,,---,0.00,VWS V14.01,2013-03-20 07:39:00,
2013-03-20 03:44:00,39.4,29.0,30.18,South,173,1.0,1.0,66,0.00,,---,0.00,VWS V14.01,2013-03-20 07:44:00,
2013-03-20 03:49:00,39.2,29.2,30.18,South,173,0.0,1.0,67,0.00,,---,0.00,VWS V14.01,2013-03-20 07:49:00,
2013-03-20 03:54:00,39.0,28.6,30.18,South,173,0.0,1.0,66,0.00,,---,0.00,VWS V14.01,2013-03-20 07:54:00,
2013-03-20 03:59:00,38.8,28.4,30.18,South,173,1.0,2.0,66,0.00,,---,0.00,VWS V14.01,2013-03-20 07:59:00,
2013-03-20 04:04:00,38.8,27.7,30.18,South,173,0.0,2.0,64,0.00,,---,0.00,VWS V14.01,2013-03-20 08:04:00,
2013-03-20 04:09:00,38.8,27.7,30.18,South,173,0.0,1.0,64,0.00,,---,0.00,VWS V14.01,2013-03-20 08:09:00,
2013-03-20 04:14:00,38.8,27.3,30.18,South,173,0.0,1.0,63,0.00,,---,0.00,VWS V14.01,2013-03-20 08:14:00,
2013-03-20 04:19:00,38.8,27.7,30.17,South,173,0.0,1.0,64,0.00,,---,0.00,VWS V14.01,2013-03-20 08:19:00,
2013-03-20 04:24:00,38.9,28.1,30.18,South,173,0.0,1.0,65,0.00,,---,0.00,VWS V14.01,2013-03-20 08:24:00,
2013-03-20 04:29:00,39.0,27.5,30.17,South,173,0.0,1.0,63,0.00,,---,0.00,VWS V14.01,2013-03-20 08:29:00,
2013-03-20 04:34:00,39.3,27.0,30.17,South,173,0.0,1.0,61,0.00,,---,0.00,VWS V14.01,2013-03-20 08:34:00,
2013-03-20 04:39:00,39.5,28.4,30.17,South,173,0.0,1.0,64,0.00,,---,0.00,VWS V14.01,2013-03-20 08:39:00,
2013-03-20 04:44:00,39.7,25.7,30.17,South,173,1.0,1.0,57,0.00,,---,0.00,VWS V14.01,2013-03-20 08:44:00,
2013-03-20 04:49:00,39.9,27.6,30.17,South,173,0.0,1.0,61,0.00,,---,0.00,VWS V14.01,2013-03-20 08:49:00,
2013-03-20 04:54:00,40.0,24.7,30.17,South,173,0.0,1.0,54,0.00,,---,0.00,VWS V14.01,2013-03-20 08:54:00,
2013-03-20 04:59:00,40.2,28.2,30.17,South,173,0.0,1.0,62,0.00,,---,0.00,VWS V14.01,2013-03-20 08:59:00,
2013-03-20 05:04:00,40.2,27.8,30.17,South,173,0.0,1.0,61,0.00,,---,0.00,VWS V14.01,2013-03-20 09:04:00,
2013-03-20 05:09:00,40.2,27.8,30.16,South,173,1.0,1.0,61,0.00,,---,0.00,VWS V14.01,2013-03-20 09:09:00,
2013-03-20 05:14:00,40.1,28.1,30.17,South,173,0.0,1.0,62,0.00,,---,0.00,VWS V14.01,2013-03-20 09:14:00,
2013-03-20 05:19:00,40.1,28.1,30.17,South,173,0.0,1.0,62,0.00,,---,0.00,VWS V14.01,2013-03-20 09:19:00,
2013-03-20 05:24:00,40.0,26.4,30.17,South,173,0.0,1.0,58,0.00,,---,0.00,VWS V14.01,2013-03-20 09:24:00,
2013-03-20 05:29:00,39.9,26.8,30.17,South,173,0.0,1.0,59,0.00,,---,0.00,VWS V14.01,2013-03-20 09:29:00,
2013-03-20 05:34:00,39.8,27.5,30.17,South,173,0.0,1.0,61,0.00,,---,0.00,VWS V14.01,2013-03-20 09:34:00,
2013-03-20 05:39:00,39.6,24.8,30.17,South,173,0.0,0.0,55,0.00,,---,0.00,VWS V14.01,2013-03-20 09:39:00,
2013-03-20 05:44:00,39.4,25.9,30.17,South,173,0.0,1.0,58,0.00,,---,0.00,VWS V14.01,2013-03-20 09:44:00,
2013-03-20 05:49:00,39.2,25.7,30.17,South,173,1.0,1.0,58,0.00,,---,0.00,VWS V14.01,2013-03-20 09:49:00,
2013-03-20 05:54:00,39.1,28.0,30.17,South,173,0.0,1.0,64,0.00,,---,0.00,VWS V14.01,2013-03-20 09:54:00,
2013-03-20 05:59:00,39.0,28.6,30.17,South,173,0.0,1.0,66,0.00,,---,0.00,VWS V14.01,2013-03-20 09:59:00,
2013-03-20 06:04:00,38.8,27.3,30.17,South,173,0.0,1.0,63,0.00,,---,0.00,VWS V14.01,2013-03-20 10:04:00,
2013-03-20 06:09:00,38.7,26.8,30.17,South,173,1.0,1.0,62,0.00,,---,0.00,VWS V14.01,2013-03-20 10:09:00,
2013-03-20 06:14:00,38.6,26.3,30.17,South,173,1.0,1.0,61,0.00,,---,0.00,VWS V14.01,2013-03-20 10:14:00,
2013-03-20 06:19:00,38.6,26.7,30.18,South,173,0.0,1.0,62,0.00,,---,0.00,VWS V14.01,2013-03-20 10:19:00,
2013-03-20 06:24:00,38.7,26.8,30.18,South,173,0.0,1.0,62,0.00,,---,0.00,VWS V14.01,2013-03-20 10:24:00,
2013-03-20 06:29:00,38.8,27.7,30.18,South,173,0.0,1.0,64,0.00,,---,0.00,VWS V14.01,2013-03-20 10:29:00,
2013-03-20 06:34:00,38.8,26.9,30.18,South,173,0.0,1.0,62,0.00,,---,0.00,VWS V14.01,2013-03-20 10:34:00,
2013-03-20 06:39:00,38.9,26.2,30.19,South,173,1.0,1.0,60,0.00,,---,0.00,VWS V14.01,2013-03-20 10:39:00,
2013-03-20 06:44:00,38.9,27.4,30.19,South,173,0.0,1.0,63,0.00,,---,0.00,VWS V14.01,2013-03-20 10:44:00,
2013-03-20 06:49:00,38.9,27.0,30.20,South,173,0.0,1.0,62,0.00,,---,0.00,VWS V14.01,2013-03-20 10:49:00,
2013-03-20 06:54:00,38.9,26.6,30.20,South,173,1.0,1.0,61,0.00,,---,0.00,VWS V14.01,2013-03-20 10:54:00,
2013-03-20 06:59:00,38.8,26.5,30.20,South,173,0.0,1.0,61,0.00,,---,0.00,VWS V14.01,2013-03-20 10:59:00,
2013-03-20 07:04:00,38.8,27.3,30.20,South,173,0.0,1.0,63,0.00,,---,0.00,VWS V14.01,2013-03-20 11:04:00,
2013-03-20 07:09:00,38.8,27.7,30.21,South,173,0.0,0.0,64,0.00,,---,0.00,VWS V14.01,2013-03-20 11:09:00,
2013-03-20 07:14:00,38.7,28.0,30.21,South,173,0.0,1.0,65,0.00,,---,0.00,VWS V14.01,2013-03-20 11:14:00,
2013-03-20 07:19:00,38.6,27.1,30.21,South,173,0.0,1.0,63,0.00,,---,0.00,VWS V14.01,2013-03-20 11:19:00,
2013-03-20 07:23:00,38.4,27.3,30.21,South,173,1.0,1.0,64,0.00,,---,0.00,VWS V14.01,2013-03-20 11:23:00,
2013-03-20 07:28:00,38.3,27.2,30.21,South,173,0.0,1.0,64,0.00,,---,0.00,VWS V14.01,2013-03-20 11:28:00,
2013-03-20 07:33:00,38.1,27.4,30.21,South,173,0.0,1.0,65,0.00,,---,0.00,VWS V14.01,2013-03-20 11:33:00,
2013-03-20 07:38:00,37.9,27.2,30.21,South,173,0.0,0.0,65,0.00,,---,0.00,VWS V14.01,2013-03-20 11:38:00,
2013-03-20 07:43:00,37.7,28.5,30.21,South,173,0.0,0.0,69,0.00,,---,0.00,VWS V14.01,2013-03-20 11:43:00,
2013-03-20 07:48:00,37.4,27.5,30.21,South,173,0.0,0.0,67,0.00,,---,0.00,VWS V14.01,2013-03-20 11:48:00,
2013-03-20 07:53:00,37.1,27.2,30.21,South,173,1.0,1.0,67,0.00,,---,0.00,VWS V14.01,2013-03-20 11:53:00,
2013-03-20 07:58:00,36.8,26.9,30.21,South,173,0.0,1.0,67,0.00,,---,0.00,VWS V14.01,2013-03-20 11:58:00,
2013-03-20 08:03:00,36.6,27.0,30.21,South,173,0.0,1.0,68,0.00,,---,0.00,VWS V14.01,2013-03-20 12:03:00,
2013-03-20 08:08:00,36.4,27.6,30.21,South,173,0.0,0.0,70,0.00,,---,0.00,VWS V14.01,2013-03-20 12:08:00,
2013-03-20 08:13:00,36.2,27.4,30.21,South,173,0.0,0.0,70,0.00,,---,0.00,VWS V14.01,2013-03-20 12:13:00,
2013-03-20 08:18:00,36.2,27.7,30.22,South,173,0.0,0.0,71,0.00,,---,0.00,VWS V14.01,2013-03-20 12:18:00,
2013-03-20 08:23:00,36.1,27.3,30.22,South,173,0.0,0.0,70,0.00,,---,0.00,VWS V14.01,2013-03-20 12:23:00,
2013-03-20 08:28:00,36.1,27.6,30.22,South,173,0.0,0.0,71,0.00,,---,0.00,VWS V14.01,2013-03-20 12:28:00,
2013-03-20 08:33:00,36.1,27.6,30.22,South,173,0.0,0.0,71,0.00,,---,0.00,VWS V14.01,2013-03-20 12:33:00,
2013-03-20 08:38:00,36.2,28.1,30.22,South,173,0.0,0.0,72,0.00,,---,0.00,VWS V14.01,2013-03-20 12:38:00,
2013-03-20 08:43:00,36.4,28.2,30.22,South,173,0.0,0.0,72,0.00,,---,0.00,VWS V14.01,2013-03-20 12:43:00,
2013-03-20 08:48:00,36.6,30.1,30.22,South,173,0.0,0.0,77,0.00,,---,0.00,VWS V14.01,2013-03-20 12:48:00,
2013-03-20 08:53:00,36.9,30.4,30.22,South,173,0.0,0.0,77,0.00,,---,0.00,VWS V14.01,2013-03-20 12:53:00,
2013-03-20 08:58:00,37.2,31.0,30.22,South,173,0.0,0.0,78,0.00,,---,0.00,VWS V14.01,2013-03-20 12:58:00,
2013-03-20 09:03:00,37.8,31.6,30.22,South,173,0.0,0.0,78,0.00,,---,0.00,VWS V14.01,2013-03-20 13:03:00,
2013-03-20 09:08:00,38.4,30.9,30.22,South,173,0.0,1.0,74,0.00,,---,0.00,VWS V14.01,2013-03-20 13:08:00,
2013-03-20 09:13:00,39.0,30.4,30.22,South,173,0.0,1.0,71,0.00,,---,0.00,VWS V14.01,2013-03-20 13:13:00,
2013-03-20 09:18:00,39.9,30.6,30.22,South,173,0.0,1.0,69,0.00,,---,0.00,VWS V14.01,2013-03-20 13:18:00,
2013-03-20 09:23:00,41.0,29.8,30.22,South,173,0.0,1.0,64,0.00,,---,0.00,VWS V14.01,2013-03-20 13:23:00,
2013-03-20 09:28:00,42.5,29.2,30.23,South,175,0.0,2.0,59,0.00,,---,0.00,VWS V14.01,2013-03-20 13:28:00,
2013-03-20 09:33:00,43.8,28.7,30.22,WSW,244,4.0,4.0,55,0.00,,---,0.00,VWS V14.01,2013-03-20 13:33:00,
2013-03-20 09:38:00,44.6,29.0,30.22,WSW,242,1.0,3.0,54,0.00,,---,0.00,VWS V14.01,2013-03-20 13:38:00,
2013-03-20 09:43:00,45.0,28.5,30.22,SW,226,0.0,4.0,52,0.00,,---,0.00,VWS V14.01,2013-03-20 13:43:00,
2013-03-20 09:48:00,45.5,27.5,30.22,SW,226,1.0,4.0,49,0.00,,---,0.00,VWS V14.01,2013-03-20 13:48:00,
2013-03-20 09:53:00,45.8,28.2,30.22,WSW,254,2.0,4.0,50,0.00,,---,0.00,VWS V14.01,2013-03-20 13:53:00,
2013-03-20 09:58:00,46.4,27.8,30.22,WSW,248,1.0,4.0,48,0.00,,---,0.00,VWS V14.01,2013-03-20 13:58:00,
2013-03-20 10:03:00,47.0,27.8,30.22,WSW,248,1.0,4.0,47,0.00,,---,0.00,VWS V14.01,2013-03-20 14:03:00,
2013-03-20 10:08:00,47.8,28.6,30.22,SW,234,2.0,3.0,47,0.00,,---,0.00,VWS V14.01,2013-03-20 14:08:00,
2013-03-20 10:13:00,48.6,28.2,30.22,WSW,256,1.0,3.0,45,0.00,,---,0.00,VWS V14.01,2013-03-20 14:13:00,
2013-03-20 10:18:00,49.4,28.4,30.22,West,270,1.0,4.0,44,0.00,,---,0.00,VWS V14.01,2013-03-20 14:18:00,
2013-03-20 10:23:00,49.8,28.2,30.22,WNW,282,2.0,4.0,43,0.00,,---,0.00,VWS V14.01,2013-03-20 14:23:00,
2013-03-20 10:28:00,50.3,28.1,30.22,WSW,258,1.0,4.0,42,0.00,,---,0.00,VWS V14.01,2013-03-20 14:28:00,
2013-03-20 10:33:00,50.6,27.8,30.21,WSW,257,1.0,4.0,41,0.00,,---,0.00,VWS V14.01,2013-03-20 14:33:00,
2013-03-20 10:38:00,51.1,28.2,30.21,SW,235,2.0,2.0,41,0.00,,---,0.00,VWS V14.01,2013-03-20 14:38:00,
2013-03-20 10:43:00,51.4,30.2,30.21,WSW,250,0.0,3.0,44,0.00,,---,0.00,VWS V14.01,2013-03-20 14:43:00,
2013-03-20 10:48:00,51.6,29.9,30.20,WSW,246,3.0,4.0,43,0.00,,---,0.00,VWS V14.01,2013-03-20 14:48:00,
2013-03-20 10:53:00,51.6,29.3,30.20,WSW,244,1.0,4.0,42,0.00,,---,0.00,VWS V14.01,2013-03-20 14:53:00,
2013-03-20 10:58:00,51.6,28.1,30.20,WSW,238,1.0,4.0,40,0.00,,---,0.00,VWS V14.01,2013-03-20 14:58:00,
2013-03-20 11:03:00,51.7,28.8,30.20,NW,304,2.0,4.0,41,0.00,,---,0.00,VWS V14.01,2013-03-20 15:03:00,
2013-03-20 11:08:00,52.1,29.1,30.20,West,265,4.0,5.0,41,0.00,,---,0.00,VWS V14.01,2013-03-20 15:08:00,
2013-03-20 11:13:00,52.1,29.1,30.20,SW,217,1.0,5.0,41,0.00,,---,0.00,VWS V14.01,2013-03-20 15:13:00,
2013-03-20 11:18:00,51.9,29.5,30.20,SW,218,3.0,5.0,42,0.00,,---,0.00,VWS V14.01,2013-03-20 15:18:00,
2013-03-20 11:23:00,51.9,28.4,30.19,West,269,1.0,5.0,40,0.00,,---,0.00,VWS V14.01,2013-03-20 15:23:00,
2013-03-20 11:28:00,52.1,28.5,30.19,SW,225,2.0,5.0,40,0.00,,---,0.00,VWS V14.01,2013-03-20 15:28:00,
2013-03-20 11:33:00,52.0,27.8,30.19,WSW,242,2.0,5.0,39,0.00,,---,0.00,VWS V14.01,2013-03-20 15:33:00,
2013-03-20 11:38:00,52.3,27.5,30.19,WSW,252,1.0,3.0,38,0.00,,---,0.00,VWS V14.01,2013-03-20 15:38:00,
2013-03-20 11:43:00,52.9,28.6,30.18,WSW,238,2.0,4.0,39,0.00,,---,0.00,VWS V14.01,2013-03-20 15:43:00,
2013-03-20 11:48:00,53.8,28.2,30.18,West,261,1.0,5.0,37,0.00,,---,0.00,VWS V14.01,2013-03-20 15:48:00,
2013-03-20 11:53:00,54.4,27.3,30.17,West,269,2.0,5.0,35,0.00,,---,0.00,VWS V14.01,2013-03-20 15:53:00,
2013-03-20 11:58:00,54.9,25.6,30.17,WNW,288,2.0,5.0,32,0.00,,---,0.00,VWS V14.01,2013-03-20 15:58:00,
2013-03-20 12:03:00,55.2,25.9,30.17,West,259,3.0,5.0,32,0.00,,---,0.00,VWS V14.01,2013-03-20 16:03:00,
2013-03-20 12:08:00,55.3,27.4,30.17,WSW,242,1.0,1.0,34,0.00,,---,0.00,VWS V14.01,2013-03-20 16:08:00,
2013-03-20 12:13:00,55.8,28.6,30.17,WSW,248,3.0,4.0,35,0.00,,---,0.00,VWS V14.01,2013-03-20 16:13:00,
2013-03-20 12:18:00,56.1,25.9,30.17,East,94,2.0,4.0,31,0.00,,---,0.00,VWS V14.01,2013-03-20 16:18:00,
2013-03-20 12:23:00,56.2,26.0,30.16,South,190,4.0,4.0,31,0.00,,---,0.00,VWS V14.01,2013-03-20 16:23:00,
2013-03-20 12:28:00,55.6,23.9,30.16,NNW,341,1.0,4.0,29,0.00,,---,0.00,VWS V14.01,2013-03-20 16:28:00,
2013-03-20 12:33:00,55.9,29.4,30.16,North,360,1.0,4.0,36,0.00,,---,0.00,VWS V14.01,2013-03-20 16:33:00,
2013-03-20 12:38:00,56.9,26.6,30.15,West,264,1.0,3.0,31,0.00,,---,0.00,VWS V14.01,2013-03-20 16:38:00,
2013-03-20 12:43:00,57.7,29.5,30.15,WNW,296,3.0,7.0,34,0.00,,---,0.00,VWS V14.01,2013-03-20 16:43:00,
2013-03-20 12:48:00,58.0,27.6,30.14,WSW,240,2.0,7.0,31,0.00,,---,0.00,VWS V14.01,2013-03-20 16:48:00,
2013-03-20 12:53:00,57.7,28.1,30.14,West,259,3.0,7.0,32,0.00,,---,0.00,VWS V14.01,2013-03-20 16:53:00,
2013-03-20 12:58:00,57.4,27.0,30.14,WNW,299,1.0,7.0,31,0.00,,---,0.00,VWS V14.01,2013-03-20 16:58:00,
2013-03-20 13:03:00,57.4,29.3,30.14,WNW,288,1.0,7.0,34,0.00,,---,0.00,VWS V14.01,2013-03-20 17:03:00,
2013-03-20 13:08:00,57.6,27.2,30.13,WNW,288,2.0,5.0,31,0.00,,---,0.00,VWS V14.01,2013-03-20 17:08:00,
2013-03-20 13:13:00,57.8,27.4,30.13,West,263,0.0,5.0,31,0.00,,---,0.00,VWS V14.01,2013-03-20 17:13:00,
2013-03-20 13:18:00,58.2,27.7,30.12,SE,129,2.0,5.0,31,0.00,,---,0.00,VWS V14.01,2013-03-20 17:18:00,
2013-03-20 13:23:00,57.6,28.7,30.12,ESE,117,3.0,7.0,33,0.00,,---,0.00,VWS V14.01,2013-03-20 17:23:00,
2013-03-20 13:28:00,57.2,26.9,30.12,ESE,111,3.0,7.0,31,0.00,,---,0.00,VWS V14.01,2013-03-20 17:28:00,
2013-03-20 13:33:00,57.4,26.2,30.12,NE,41,0.0,7.0,30,0.00,,---,0.00,VWS V14.01,2013-03-20 17:33:00,
2013-03-20 13:38:00,57.8,28.9,30.11,SW,229,2.0,4.0,33,0.00,,---,0.00,VWS V14.01,2013-03-20 17:38:00,
2013-03-20 13:43:00,58.1,25.2,30.11,NNW,347,2.0,10.0,28,0.00,,---,0.00,VWS V14.01,2013-03-20 17:43:00,
2013-03-20 13:48:00,58.3,26.2,30.11,NE,49,2.0,10.0,29,0.00,,---,0.00,VWS V14.01,2013-03-20 17:48:00,
2013-03-20 13:53:00,58.0,25.1,30.10,ENE,76,0.0,10.0,28,0.00,,---,0.00,VWS V14.01,2013-03-20 17:53:00,
2013-03-20 13:58:00,58.1,28.4,30.10,NNE,14,3.0,10.0,32,0.00,,---,0.00,VWS V14.01,2013-03-20 17:58:00,
2013-03-20 14:03:00,59.0,27.6,30.10,East,86,3.0,10.0,30,0.00,,---,0.00,VWS V14.01,2013-03-20 18:03:00,
2013-03-20 14:08:00,59.0,28.4,30.10,East,95,3.0,5.0,31,0.00,,---,0.00,VWS V14.01,2013-03-20 18:08:00,
2013-03-20 14:13:00,59.0,26.0,30.09,North,5,3.0,5.0,28,0.00,,---,0.00,VWS V14.01,2013-03-20 18:13:00,
2013-03-20 14:18:00,59.0,26.0,30.08,NE,46,0.0,5.0,28,0.00,,---,0.00,VWS V14.01,2013-03-20 18:18:00,
2013-03-20 14:23:00,59.0,25.1,30.08,ESE,102,4.0,5.0,27,0.00,,---,0.00,VWS V14.01,2013-03-20 18:23:00,
2013-03-20 14:28:00,59.6,28.1,30.08,NNW,346,1.0,5.0,30,0.00,,---,0.00,VWS V14.01,2013-03-20 18:28:00,
2013-03-20 14:33:00,59.8,25.8,30.07,SW,231,1.0,5.0,27,0.00,,---,0.00,VWS V14.01,2013-03-20 18:33:00,
2013-03-20 14:38:00,59.8,25.8,30.07,ESE,123,2.0,6.0,27,0.00,,---,0.00,VWS V14.01,2013-03-20 18:38:00,
2013-03-20 14:43:00,60.0,26.0,30.07,SSE,165,1.0,6.0,27,0.00,,---,0.00,VWS V14.01,2013-03-20 18:43:00,
2013-03-20 14:48:00,60.0,27.7,30.07,East,83,2.0,6.0,29,0.00,,---,0.00,VWS V14.01,2013-03-20 18:48:00,
2013-03-20 14:53:00,59.4,24.5,30.07,East,98,3.0,11.0,26,0.00,,---,0.00,VWS V14.01,2013-03-20 18:53:00,
2013-03-20 14:58:00,58.0,25.1,30.06,NE,36,1.0,11.0,28,0.00,,---,0.00,VWS V14.01,2013-03-20 18:58:00,
2013-03-20 15:03:00,57.3,25.3,30.06,ENE,66,4.0,11.0,29,0.00,,---,0.00,VWS V14.01,2013-03-20 19:03:00,
2013-03-20 15:08:00,56.7,26.4,30.06,NE,40,5.0,6.0,31,0.00,,---,0.00,VWS V14.01,2013-03-20 19:08:00,
2013-03-20 15:13:00,57.6,27.2,30.06,East,92,5.0,10.0,31,0.00,,---,0.00,VWS V14.01,2013-03-20 19:13:00,
2013-03-20 15:18:00,58.6,27.3,30.05,East,80,4.0,10.0,30,0.00,,---,0.00,VWS V14.01,2013-03-20 19:18:00,
2013-03-20 15:23:00,58.2,25.3,30.05,ENE,67,4.0,10.0,28,0.00,,---,0.00,VWS V14.01,2013-03-20 19:23:00,
2013-03-20 15:28:00,57.5,27.1,30.05,WSW,240,2.0,10.0,31,0.00,,---,0.00,VWS V14.01,2013-03-20 19:28:00,
2013-03-20 15:33:00,57.9,27.5,30.04,NE,46,3.0,10.0,31,0.00,,---,0.00,VWS V14.01,2013-03-20 19:33:00,
2013-03-20 15:38:00,56.7,24.0,30.04,ENE,78,0.0,6.0,28,0.00,,---,0.00,VWS V14.01,2013-03-20 19:38:00,
2013-03-20 15:43:00,55.7,24.0,30.04,ENE,76,1.0,7.0,29,0.00,,---,0.00,VWS V14.01,2013-03-20 19:43:00,
2013-03-20 15:48:00,55.3,25.2,30.04,NE,41,2.0,7.0,31,0.00,,---,0.00,VWS V14.01,2013-03-20 19:48:00,
2013-03-20 15:53:00,55.5,23.8,30.03,ENE,69,1.0,7.0,29,0.00,,---,0.00,VWS V14.01,2013-03-20 19:53:00,
2013-03-20 15:58:00,55.5,26.1,30.03,SE,134,3.0,7.0,32,0.00,,---,0.00,VWS V14.01,2013-03-20 19:58:00,
2013-03-20 16:03:00,55.9,24.9,30.03,NE,45,3.0,13.0,30,0.00,,---,0.00,VWS V14.01,2013-03-20 20:03:00,
2013-03-20 16:08:00,56.5,23.8,30.02,ESE,107,4.0,10.0,28,0.00,,---,0.00,VWS V14.01,2013-03-20 20:08:00,
2013-03-20 16:13:00,57.0,25.1,30.02,East,90,2.0,11.0,29,0.00,,---,0.00,VWS V14.01,2013-03-20 20:13:00,
2013-03-20 16:18:00,56.9,25.8,30.02,East,99,0.0,11.0,30,0.00,,---,0.00,VWS V14.01,2013-03-20 20:18:00,
2013-03-20 16:23:00,57.0,25.9,30.01,East,98,5.0,11.0,30,0.00,,---,0.00,VWS V14.01,2013-03-20 20:23:00,
2013-03-20 16:28:00,57.0,25.1,30.01,ENE,75,2.0,11.0,29,0.00,,---,0.00,VWS V14.01,2013-03-20 20:28:00,
2013-03-20 16:33:00,56.9,25.8,30.01,SW,222,2.0,11.0,30,0.00,,---,0.00,VWS V14.01,2013-03-20 20:33:00,
2013-03-20 16:38:00,57.1,26.8,30.01,SSW,213,3.0,3.0,31,0.00,,---,0.00,VWS V14.01,2013-03-20 20:38:00,
2013-03-20 16:43:00,57.8,26.6,30.00,East,80,2.0,5.0,30,0.00,,---,0.00,VWS V14.01,2013-03-20 20:43:00,
2013-03-20 16:48:00,58.1,27.6,30.00,East,96,2.0,9.0,31,0.00,,---,0.00,VWS V14.01,2013-03-20 20:48:00,
2013-03-20 16:53:00,58.3,27.0,30.00,South,173,2.0,9.0,30,0.00,,---,0.00,VWS V14.01,2013-03-20 20:53:00,
2013-03-20 16:58:00,58.4,26.3,30.00,ESE,113,2.0,9.0,29,0.00,,---,0.00,VWS V14.01,2013-03-20 20:58:00,
2013-03-20 17:03:00,58.3,26.2,29.99,East,79,10.0,10.0,29,0.00,,---,0.00,VWS V14.01,2013-03-20 21:03:00,
2013-03-20 17:08:00,57.2,26.1,30.00,East,91,2.0,9.0,30,0.00,,---,0.00,VWS V14.01,2013-03-20 21:08:00,
2013-03-20 17:13:00,56.2,26.0,30.00,ENE,61,1.0,10.0,31,0.00,,---,0.00,VWS V14.01,2013-03-20 21:13:00,
2013-03-20 17:18:00,55.5,27.6,30.00,SE,144,1.0,10.0,34,0.00,,---,0.00,VWS V14.01,2013-03-20 21:18:00,
2013-03-20 17:23:00,55.1,26.5,30.00,East,84,2.0,10.0,33,0.00,,---,0.00,VWS V14.01,2013-03-20 21:23:00,
2013-03-20 17:28:00,54.9,26.4,30.00,ENE,74,2.0,10.0,33,0.00,,---,0.00,VWS V14.01,2013-03-20 21:28:00,
2013-03-20 17:33:00,54.9,27.1,29.99,ENE,75,2.0,10.0,34,0.00,,---,0.00,VWS V14.01,2013-03-20 21:33:00,
2013-03-20 17:38:00,54.8,27.0,29.99,East,80,1.0,8.0,34,0.00,,---,0.00,VWS V14.01,2013-03-20 21:38:00,
2013-03-20 17:43:00,54.6,26.8,29.99,East,82,1.0,8.0,34,0.00,,---,0.00,VWS V14.01,2013-03-20 21:43:00,
2013-03-20 17:48:00,54.7,28.3,29.98,ESE,117,1.0,8.0,36,0.00,,---,0.00,VWS V14.01,2013-03-20 21:48:00,
2013-03-20 17:53:00,55.4,27.5,29.98,ENE,70,3.0,11.0,34,0.00,,---,0.00,VWS V14.01,2013-03-20 21:53:00,
2013-03-20 17:58:00,55.8,27.9,29.98,ESE,114,1.0,11.0,34,0.00,,---,0.00,VWS V14.01,2013-03-20 21:58:00,
2013-03-20 18:03:00,56.4,27.7,29.98,East,91,3.0,13.0,33,0.00,,---,0.00,VWS V14.01,2013-03-20 22:03:00,
2013-03-20 18:08:00,56.6,27.9,29.98,NE,50,4.0,9.0,33,0.00,,---,0.00,VWS V14.01,2013-03-20 22:08:00,
2013-03-20 18:13:00,56.5,27.8,29.98,SE,144,2.0,9.0,33,0.00,,---,0.00,VWS V14.01,2013-03-20 22:13:00,
2013-03-20 18:18:00,55.7,27.1,29.98,NE,38,1.0,9.0,33,0.00,,---,0.00,VWS V14.01,2013-03-20 22:18:00,
2013-03-20 18:23:00,54.9,26.4,29.98,ESE,118,4.0,9.0,33,0.00,,---,0.00,VWS V14.01,2013-03-20 22:23:00,
2013-03-20 18:28:00,54.0,27.0,29.99,SW,223,1.0,9.0,35,0.00,,---,0.00,VWS V14.01,2013-03-20 22:28:00,
2013-03-20 18:33:00,53.4,26.5,29.99,ENE,75,4.0,9.0,35,0.00,,---,0.00,VWS V14.01,2013-03-20 22:33:00,
2013-03-20 18:38:00,53.1,27.5,29.99,East,90,6.0,6.0,37,0.00,,---,0.00,VWS V14.01,2013-03-20 22:38:00,
2013-03-20 18:43:00,52.9,26.7,29.99,ESE,117,2.0,6.0,36,0.00,,---,0.00,VWS V14.01,2013-03-20 22:43:00,
2013-03-20 18:48:00,52.6,27.1,29.99,ENE,72,2.0,6.0,37,0.00,,---,0.00,VWS V14.01,2013-03-20 22:48:00,
2013-03-20 18:53:00,52.4,27.6,29.99,ENE,69,3.0,7.0,38,0.00,,---,0.00,VWS V14.01,2013-03-20 22:53:00,
2013-03-20 18:58:00,52.2,28.0,29.99,NNE,32,0.0,7.0,39,0.00,,---,0.00,VWS V14.01,2013-03-20 22:58:00,
2013-03-20 19:03:00,52.1,27.9,29.99,ENE,59,2.0,7.0,39,0.00,,---,0.00,VWS V14.01,2013-03-20 23:03:00,
2013-03-20 19:08:00,51.9,26.5,29.99,ENE,70,4.0,6.0,37,0.00,,---,0.00,VWS V14.01,2013-03-20 23:08:00,
2013-03-20 19:13:00,51.8,27.6,30.00,NNE,26,2.0,6.0,39,0.00,,---,0.00,VWS V14.01,2013-03-20 23:13:00,
2013-03-20 19:18:00,51.7,27.6,30.00,SE,129,3.0,11.0,39,0.00,,---,0.00,VWS V14.01,2013-03-20 23:18:00,
2013-03-20 19:23:00,51.5,27.4,30.00,NNW,341,6.0,11.0,39,0.00,,---,0.00,VWS V14.01,2013-03-20 23:23:00,
2013-03-20 19:28:00,51.2,28.9,30.00,East,99,5.0,11.0,42,0.00,,---,0.00,VWS V14.01,2013-03-20 23:28:00,
2013-03-20 19:33:00,50.6,30.1,30.00,East,84,2.0,11.0,45,0.00,,---,0.00,VWS V14.01,2013-03-20 23:33:00,
2013-03-20 19:38:00,50.1,28.5,30.00,ESE,116,3.0,4.0,43,0.00,,---,0.00,VWS V14.01,2013-03-20 23:38:00,
2013-03-20 19:43:00,49.9,28.9,30.00,WNW,300,3.0,8.0,44,0.00,,---,0.00,VWS V14.01,2013-03-20 23:43:00,
2013-03-20 19:47:00,49.7,28.7,30.00,ESE,109,3.0,8.0,44,0.00,,---,0.00,VWS V14.01,2013-03-20 23:47:00,
2013-03-20 19:52:00,49.5,29.6,30.00,NE,51,1.0,8.0,46,0.00,,---,0.00,VWS V14.01,2013-03-20 23:52:00,
2013-03-20 19:57:00,49.2,30.4,30.01,ESE,110,7.0,16.0,48,0.00,,---,0.00,VWS V14.01,2013-03-20 23:57:00,
2013-03-20 20:02:00,48.4,31.1,30.02,SSW,202,2.0,16.0,51,0.00,,---,0.00,VWS V14.01,2013-03-21 00:02:00,
2013-03-20 20:07:00,47.7,32.3,30.02,WSW,250,7.0,7.0,55,0.00,,---,0.00,VWS V14.01,2013-03-21 00:07:00,
2013-03-20 20:12:00,46.9,33.8,30.03,NNE,33,4.0,10.0,60,0.00,,---,0.00,VWS V14.01,2013-03-21 00:12:00,
2013-03-20 20:17:00,46.0,33.3,30.03,East,92,1.0,10.0,61,0.00,,---,0.00,VWS V14.01,2013-03-21 00:17:00,
2013-03-20 20:22:00,45.4,33.2,30.03,WSW,250,1.0,10.0,62,0.00,,---,0.00,VWS V14.01,2013-03-21 00:22:00,
2013-03-20 20:27:00,45.0,33.2,30.03,ENE,63,3.0,10.0,63,0.00,,---,0.00,VWS V14.01,2013-03-21 00:27:00,
2013-03-20 20:32:00,44.6,33.2,30.04,NNE,23,6.0,10.0,64,0.00,,---,0.00,VWS V14.01,2013-03-21 00:32:00,
2013-03-20 20:37:00,44.2,32.8,30.04,West,267,2.0,4.0,64,0.00,,---,0.00,VWS V14.01,2013-03-21 00:37:00,
2013-03-20 20:42:00,44.0,33.0,30.04,East,90,0.0,4.0,65,0.00,,---,0.00,VWS V14.01,2013-03-21 00:42:00,
2013-03-20 20:47:00,43.7,32.7,30.05,SSW,205,2.0,10.0,65,0.00,,---,0.00,VWS V14.01,2013-03-21 00:47:00,
2013-03-20 20:52:00,43.4,32.8,30.05,SW,227,1.0,10.0,66,0.00,,---,0.00,VWS V14.01,2013-03-21 00:52:00,
2013-03-20 20:57:00,43.3,33.1,30.05,WSW,256,1.0,10.0,67,0.00,,---,0.00,VWS V14.01,2013-03-21 00:57:00,
2013-03-20 21:02:00,43.1,32.5,30.05,South,175,1.0,10.0,66,0.00,,---,0.00,VWS V14.01,2013-03-21 01:02:00,
2013-03-20 21:07:00,42.9,32.7,30.04,South,173,2.0,2.0,67,0.00,,---,0.00,VWS V14.01,2013-03-21 01:07:00,
2013-03-20 21:12:00,42.6,33.2,30.04,SSE,163,1.0,5.0,69,0.00,,---,0.00,VWS V14.01,2013-03-21 01:12:00,
2013-03-20 21:17:00,42.3,32.5,30.05,SE,144,1.0,5.0,68,0.00,,---,0.00,VWS V14.01,2013-03-21 01:17:00,
2013-03-20 21:22:00,42.2,32.8,30.05,WNW,285,2.0,5.0,69,0.00,,---,0.00,VWS V14.01,2013-03-21 01:22:00,
2013-03-20 21:27:00,42.1,32.3,30.05,NNW,348,6.0,7.0,68,0.00,,---,0.00,VWS V14.01,2013-03-21 01:27:00,
2013-03-20 21:32:00,42.0,32.2,30.05,North,360,1.0,7.0,68,0.00,,---,0.00,VWS V14.01,2013-03-21 01:32:00,
2013-03-20 21:37:00,41.9,31.8,30.06,NW,308,1.0,5.0,67,0.00,,---,0.00,VWS V14.01,2013-03-21 01:37:00,
2013-03-20 21:42:00,41.9,31.8,30.05,ESE,103,1.0,6.0,67,0.00,,---,0.00,VWS V14.01,2013-03-21 01:42:00,
2013-03-20 21:47:00,41.9,32.1,30.05,ESE,107,1.0,6.0,68,0.00,,---,0.00,VWS V14.01,2013-03-21 01:47:00,
2013-03-20 21:52:00,41.7,32.3,30.06,SW,217,1.0,6.0,69,0.00,,---,0.00,VWS V14.01,2013-03-21 01:52:00,
2013-03-20 21:57:00,41.4,32.0,30.06,SW,217,0.0,6.0,69,0.00,,---,0.00,VWS V14.01,2013-03-21 01:57:00,
2013-03-20 22:02:00,41.0,32.0,30.06,SW,219,0.0,6.0,70,0.00,,---,0.00,VWS V14.01,2013-03-21 02:02:00,
2013-03-20 22:07:00,40.6,31.6,30.06,SW,219,0.0,0.0,70,0.00,,---,0.00,VWS V14.01,2013-03-21 02:07:00,
2013-03-20 22:12:00,40.1,31.5,30.06,WSW,246,2.0,4.0,71,0.00,,---,0.00,VWS V14.01,2013-03-21 02:12:00,
2013-03-20 22:17:00,39.8,31.2,30.06,SW,226,2.0,5.0,71,0.00,,---,0.00,VWS V14.01,2013-03-21 02:17:00,
2013-03-20 22:22:00,39.6,31.0,30.06,SW,224,1.0,5.0,71,0.00,,---,0.00,VWS V14.01,2013-03-21 02:22:00,
2013-03-20 22:27:00,39.4,30.8,30.06,WSW,249,3.0,5.0,71,0.00,,---,0.00,VWS V14.01,2013-03-21 02:27:00,
2013-03-20 22:32:00,39.2,30.6,30.07,West,275,1.0,5.0,71,0.00,,---,0.00,VWS V14.01,2013-03-21 02:32:00,
2013-03-20 22:37:00,39.1,30.9,30.07,West,267,2.0,3.0,72,0.00,,---,0.00,VWS V14.01,2013-03-21 02:37:00,
2013-03-20 22:42:00,38.9,30.3,30.07,SE,136,2.0,6.0,71,0.00,,---,0.00,VWS V14.01,2013-03-21 02:42:00,
2013-03-20 22:47:00,38.9,30.7,30.07,West,268,1.0,6.0,72,0.00,,---,0.00,VWS V14.01,2013-03-21 02:47:00,
2013-03-20 22:52:00,38.8,30.6,30.07,West,276,1.0,6.0,72,0.00,,---,0.00,VWS V14.01,2013-03-21 02:52:00,
2013-03-20 22:57:00,38.7,30.5,30.07,WSW,249,0.0,6.0,72,0.00,,---,0.00,VWS V14.01,2013-03-21 02:57:00,
2013-03-20 23:02:00,38.4,30.5,30.07,WNW,292,2.0,6.0,73,0.00,,---,0.00,VWS V14.01,2013-03-21 03:02:00,
2013-03-20 23:07:00,38.2,30.7,30.07,WNW,283,1.0,2.0,74,0.00,,---,0.00,VWS V14.01,2013-03-21 03:07:00,
2013-03-20 23:12:00,37.9,30.4,30.08,West,269,0.0,3.0,74,0.00,,---,0.00,VWS V14.01,2013-03-21 03:12:00,
2013-03-20 23:17:00,37.6,30.4,30.08,West,269,1.0,3.0,75,0.00,,---,0.00,VWS V14.01,2013-03-21 03:17:00,
2013-03-20 23:22:00,37.3,29.8,30.07,West,271,0.0,3.0,74,0.00,,---,0.00,VWS V14.01,2013-03-21 03:22:00,
2013-03-20 23:27:00,37.1,30.6,30.07,West,271,0.0,3.0,77,0.00,,---,0.00,VWS V14.01,2013-03-21 03:27:00,
2013-03-20 23:32:00,36.9,30.0,30.07,West,271,1.0,3.0,76,0.00,,---,0.00,VWS V14.01,2013-03-21 03:32:00,
2013-03-20 23:37:00,36.8,30.0,30.07,SSW,213,1.0,2.0,76,0.00,,---,0.00,VWS V14.01,2013-03-21 03:37:00,
2013-03-20 23:42:00,36.7,30.2,30.07,SSW,213,0.0,2.0,77,0.00,,---,0.00,VWS V14.01,2013-03-21 03:42:00,
2013-03-20 23:47:00,36.5,30.0,30.07,SSW,213,0.0,2.0,77,0.00,,---,0.00,VWS V14.01,2013-03-21 03:47:00,
2013-03-20 23:52:00,36.4,30.2,30.07,SSW,213,0.0,2.0,78,0.00,,---,0.00,VWS V14.01,2013-03-21 03:52:00,
2013-03-20 23:57:00,36.2,30.0,30.07,SSW,213,0.0,2.0,78,0.00,,---,0.00,VWS V14.01,2013-03-21 03:57:00,